User: anonymous   Login
Location: Newark
(44.6768°N, 22.5302°E)
Time: 09:21:51
(UTC+00:00)
Language:

CUBEBUG 2 - Orbit

View from above orbital plane
View from above orbital plane
View from above satellite
View from above satellite

Ground track
Ground track

The orbit data is extracted from the following two-line orbital elements,

1 39440U 13066AA  22177.87228771  .00001219  00000-0  17097-3 0  9997
2 39440  97.7265 135.0331 0080297 100.6322 260.3945 14.77028081461675
Epoch (UTC): 26 June 2022 20:56:05
Eccentricity: 0.0080297
inclination: 97.7265°
perigee height: 582 km
apogee height: 695 km
right ascension of ascending node: 135.0331°
argument of perigee: 100.6322°
revolutions per day: 14.77028081
mean anomaly at epoch: 260.3945°
orbit number at epoch: 46167

The dashed part of the orbit path shows where the satellite is in the earth's shadow,  

DLR